Regional Weather Roundup
Issued by NWS

Home | Current Version | Previous Version | Text Only | Print | Product List | Glossary On
Versions: 1 2 3 4 5 6 7 8 9 10 11 12 13 14 15 16 17 18 19 20 21 22 23 24 25 26 27 28 29 30 31 32 33 34 35 36 37 38 39 40 41 42 43 44 45 46 47 48 49 50
000
ASUS43 KLSX 260107
RWRMO

WEATHER SUMMARY FOR MISSOURI
NATIONAL WEATHER SERVICE SPRINGFIELD MO
800 PM CDT SAT OCT 25 2014

NOTE: "FAIR" INDICATES FEW OR NO CLOUDS BELOW 12,000 FEET WITH NO
       SIGNIFICANT WEATHER AND/OR OBSTRUCTIONS TO VISIBILITY.
       CURRENT SKY AND/OR WEATHER CONDITIONS ARE NOT AVAILABLE FOR
       CHILLICOTHE AND FARMINGTON.

MOZ001>031-035>038-043-044-053-054-260200-
...NORTHERN AND WESTERN MISSOURI...

CITY           SKY/WX    TMP DP  RH WIND       PRES   REMARKS
KANSAS CTY INT CLEAR     70  52  52 E6        30.02R
KANSAS C DTWN  CLEAR     69  57  65 CALM      30.01R
LEE`S SUMMIT   CLEAR     71  55  56 E6        30.03R
ST JOSEPH      CLEAR     57  48  72 NW3       30.02R HAZE
CHILLICOTHE      N/A     60  51  72 CALM      30.05R
KIRKSVILLE     CLEAR     58  47  66 N8        30.05R

$$
MOZ066>068-077>081-088>096-101>105-260200-
...SOUTHWEST MISSOURI...

CITY           SKY/WX    TMP DP  RH WIND       PRES   REMARKS
SPRINGFIELD    CLEAR     65  60  84 CALM      30.04R
JOPLIN         CLEAR     67  64  90 SE3       30.03R

$$
MOZ032>034-039>042-045>050-055>058-069>072-260200-
...CENTRAL MISSOURI...

CITY           SKY/WX    TMP DP  RH WIND       PRES   REMARKS
COLUMBIA       CLEAR     69  53  56 NE3       30.03R
JEFFERSON CITY CLEAR     67  57  70 CALM      30.01R
ROLLA          CLEAR     60  55  83 CALM      30.02R
SEDALIA        CLEAR     69  59  70 E3        30.03S
WHITEMAN AFB   CLEAR     66  58  76 E2        30.01S
OSAGE BEACH    CLEAR     64  57  77 CALM      30.03S

$$
MOZ051-052-059>065-260200-
...EAST CENTRAL MISSOURI...

CITY           SKY/WX    TMP DP  RH WIND       PRES   REMARKS
ST LOUIS INTL  CLEAR     65  53  65 CALM      30.02S
SPIRIT OF STL  CLEAR     60  54  80 CALM      30.01R
ST CHARLES     CLEAR     61  53  75 CALM      30.01R

$$
MOZ072>076-082>087-097>100-106>115-260200-
...SOUTH CENTRAL AND SOUTHEAST MISSOURI...

CITY           SKY/WX    TMP DP  RH WIND       PRES   REMARKS
CAPE GIRARDEAU CLEAR     63  59  87 CALM      30.01S
FARMINGTON     CLEAR     64  57  77 CALM      30.05R
POPLAR BLUFF   CLEAR     67  62  84 CALM      30.00S
WEST PLAINS    CLEAR     64  58  80 CALM      30.06R

$$



USA.gov is the U.S. government's official web portal to all federal, state and local government web resources and services.